Terug naar catalogus

NOAA 16 DEB

ActiefSSO
NORAD 41298·DEBRIS·🇺🇸 United States

Gelanceerd Sep 21, 2000 vanaf Vandenberg Space Force Base

Loading…

Volgende Passages (komende 24 uur)

TLE

VersSource: Space-Track

Epoch: Sep 14, 2026, 10:36 UTC

1 41298U 00055HA  26257.44188908  .00002297  00000-0  92950-3 0  9996
2 41298  98.7061 333.1338 0050194 126.8321 233.7480 14.28085685553415

Volg NOAA 16 DEB in realtime met AllMySat

Download on the App Store